Torna al catalogo

CZ-4 DEB

AttivoSSO
NORAD 26155·DEBRIS·🇨🇳 China

Lanciato Oct 14, 1999 da Taiyuan Satellite Launch Center

Loading…

Prossimi Passaggi (prossime 24 ore)

TLE

AggiornatoSource: Space-Track

Epoca: Sep 14, 2026, 03:51 UTC

1 26155U 99057AR  26257.16076567  .00005066  00000-0  85063-3 0  9991
2 26155  98.5294 325.9898 0117750 215.3091 165.3702 14.65640019382445

Traccia CZ-4 DEB in tempo reale con AllMySat

Download on the App Store